Location: Bailleul
(50.3375°N, 2.8513°E)
Time: 16:25:22
(UTC+00:00)

ATLAS CENTAUR R/B - Pass Details

Date: 16 June 2021
Orbit: 472 x 671 km, 64.6° (Epoch: 13 June)

Event Time Altitude Azimuth Distance (km) Brightness Sun altitude
Rises 21:36:16 0° 319° (NW) 2,758 6.9 -10.6°
Reaches altitude 10° 21:38:26 10° 321° (NW) 1,892 5.6 -10.8°
Maximum altitude 21:42:43 77° 48° (NE) 624 1.6 -11.1°
Enters shadow 21:46:25 15° 134° (SE) 1,678 3.2 -11.4°
